This demonstration page uses our WeatherBlox Daily Observations layout. Learn more.

41.55636, -103.73856

Hourly Observations for December 10, 2016

Temp ( °F °C ) Dew Point ( °F °C ) Humidity (%) Winds ( mph kmh ) Pressure ( in mb ) Visibility ( mi km ) Precip ( " mm )
12:53 am 00:53 Cloudy 15 -9.4 8 -13.3 74 74 ESE 15 24 30.2 1023 10 16.0934 0 0
1:53 am 01:53 Clear 14 -10 7 -13.9 73 73 ESE 16 26 30.17 1022 10 16.0934 0 0
2:53 am 02:53 Clear 14 -10 8 -13.3 77 77 E 15 24 30.16 1021 10 16.0934 0 0
3:53 am 03:53 Clear 14 -10 8 -13.3 77 77 E 12 19 30.14 1021 10 16.0934 0 0
4:53 am 04:53 Clear 14 -10 9 -12.8 80 80 E 10 17 30.11 1020 10 16.0934 0 0
5:53 am 05:53 Cloudy 15 -9.4 10 -12.2 80 80 E 9 15 30.11 1020 10 16.0934 0 0
6:53 am 06:53 Partly Cloudy 15 -9.4 11 -11.7 84 84 ESE 9 15 30.08 1019 10 16.0934 0 0
7:27 am 07:27 Cloudy 16 -9 12 -11 86 86 ESE 13 20 30.18 1022 10 16.0934 0 0
7:53 am 07:53 Cloudy 17 -8.3 12 -11.1 80 80 SE 12 19 30.06 1018 10 16.0934 0 0
8:53 am 08:53 Cloudy 18 -7.8 13 -10.6 81 81 ESE 9 15 30.03 1017 10 16.0934 0 0
9:53 am 09:53 Cloudy 20 -6.7 14 -10 78 78 ESE 7 11 30.01 1016 10 16.0934 0 0
10:53 am 10:53 Cloudy 21 -6.1 15 -9.4 78 78 E 6 9 29.98 1015 10 16.0934 0 0
11:53 am 11:53 Mostly Sunny 23 -5 16 -8.9 74 74 SSE 5 7 29.93 1013 10 16.0934 0 0
12:53 pm 12:53 Cloudy 25 -3.9 17 -8.3 72 72 E 3 6 29.88 1012 10 16.0934 0 0
1:53 pm 13:53 Mostly Cloudy 28 -2.2 19 -7.2 69 69 E 5 7 29.84 1010 10 16.0934 0 0
2:53 pm 14:53 Sunny 29 -1.7 19 -7.2 66 66 SSE 5 7 29.82 1010 10 16.0934 0 0
3:53 pm 15:53 Mostly Cloudy 29 -1.7 20 -6.7 69 69 ESE 5 7 29.8 1009 10 16.0934 0 0
4:53 pm 16:53 Mostly Cloudy 29 -1.7 21 -6.1 72 72 E 5 7 29.81 1010 10 16.0934 0 0
5:53 pm 17:53 Clear 27 -2.8 20 -6.7 75 75 SSE 6 9 29.79 1009 10 16.0934 0 0
6:53 pm 18:53 Clear 25 -3.9 19 -7.2 78 78 SE 5 7 29.78 1009 10 16.0934 0 0
7:53 pm 19:53 Clear 22 -5.6 17 -8.3 82 82 ENE 8 13 29.76 1008 10 16.0934 0 0
8:53 pm 20:53 Clear 26 -3.3 21 -6.1 81 81 NE 3 6 29.75 1007 10 16.0934 0 0
9:53 pm 21:53 Partly Cloudy 27 -2.8 21 -6.1 78 78 NNW 6 9 29.74 1007 10 16.0934 0 0
10:53 pm 22:53 Mostly Clear 39 3.9 27 -2.8 62 62 NNW 22 35 29.77 1008 10 16.0934 0 0
11:53 pm 23:53 Partly Cloudy 35 1.7 22 -5.6 59 59 N 23 37 29.8 1009 10 16.0934 0 0

Powered by AerisWeather